Regional Weather Roundup
Issued by NWS

Home | Current Version | Previous Version | Graphics & Text | Print | Product List | Glossary On
Versions: 1 2 3 4 5 6 7 8 9 10 11 12 13 14 15 16 17 18 19 20 21 22 23 24 25 26 27 28 29 30 31 32 33 34 35 36 37 38 39 40 41 42 43 44 45 46 47 48 49 50
000
ASUS43 KLSX 211459
RWRMO

WEATHER SUMMARY FOR MISSOURI
NATIONAL WEATHER SERVICE SPRINGFIELD MO
1000 AM CDT SUN SEP 21 2014

NOTE: "FAIR" INDICATES FEW OR NO CLOUDS BELOW 12,000 FEET WITH NO
       SIGNIFICANT WEATHER AND/OR OBSTRUCTIONS TO VISIBILITY.
       CURRENT SKY AND/OR WEATHER CONDITIONS ARE NOT AVAILABLE FOR
       CHILLICOTHE AND FARMINGTON.

MOZ001>031-035>038-043-044-053-054-211600-
...NORTHERN AND WESTERN MISSOURI...

CITY           SKY/WX    TMP DP  RH WIND       PRES   REMARKS
KANSAS CTY INT SUNNY     67  56  67 NW9       30.18R
KANSAS C DTWN  SUNNY     69  55  60 NW5       30.17R
LEE`S SUMMIT   SUNNY     69  52  54 NW9       30.17R
ST JOSEPH      SUNNY     67  54  63 N9        30.18R
KIRKSVILLE     SUNNY     65  51  60 W13       30.11R

$$
MOZ066>068-077>081-088>096-101>105-211600-
...SOUTHWEST MISSOURI...

CITY           SKY/WX    TMP DP  RH WIND       PRES   REMARKS
SPRINGFIELD    SUNNY     71  52  50 NE16      30.14R
JOPLIN         SUNNY     71  50  47 NE14      30.15R

$$
MOZ032>034-039>042-045>050-055>058-069>072-211600-
...CENTRAL MISSOURI...

CITY           SKY/WX    TMP DP  RH WIND       PRES   REMARKS
COLUMBIA       SUNNY     69  53  56 NW12      30.11R
JEFFERSON CITY SUNNY     70  52  52 NW6       30.10R
ROLLA          SUNNY     67  52  58 NW6       30.10R
SEDALIA        SUNNY     69  52  54 NW8       30.14R
OSAGE BEACH    SUNNY     70  50  49 N3        30.13R

$$
MOZ051-052-059>065-211600-
...EAST CENTRAL MISSOURI...

CITY           SKY/WX    TMP DP  RH WIND       PRES   REMARKS
ST LOUIS INTL  SUNNY     72  53  51 NW7       30.05R
SPIRIT OF STL  SUNNY     69  55  60 W8        30.05R
ST CHARLES     SUNNY     70  53  54 W12       30.04R

$$
MOZ072>076-082>087-097>100-106>115-211600-
...SOUTH CENTRAL AND SOUTHEAST MISSOURI...

CITY           SKY/WX    TMP DP  RH WIND       PRES   REMARKS
CAPE GIRARDEAU MOSUNNY   77  66  68 N8G21     30.02R
FARMINGTON     SUNNY     70  54  56 N10       30.09R
POPLAR BLUFF   PTSUNNY   79  68  69 N8        30.01R
WEST PLAINS    MOSUNNY   74  62  66 N12G23    30.11R

$$



USA.gov is the U.S. government's official web portal to all federal, state and local government web resources and services.